Weather History for Erie, CO

Change the Weather History Date:

Friday, December 7, 2012

  Actual Average (KBJC) Record (KBJC)
Temperature  
Mean Temperature 38 °F -  
Max Temperature 52 °F 44 °F 68 °F (1984)
Min Temperature 23 °F 25 °F -4 °F (2005)
Degree Days  
Heating Degree Days 28    
Moisture  
Dew Point 23 °F    
Average Humidity 64    
Maximum Humidity 94    
Minimum Humidity 25    
Precipitation  
Precipitation 0.00 in - - ()
Sea Level Pressure  
Sea Level Pressure 29.85 in    
Wind  
Wind Speed 5 mph (SE)    
Max Wind Speed 17 mph    
Max Gust Speed 21 mph    
Visibility 10 miles    
Events      
Averages and records for this station are not official NWS values.
T = Trace of Precipitation, MM = Missing Value Source: NWS Daily Summary

Daily Weather History Graph

Daily Weather History Graph

Search for Another Location

Airport:

Trip Planner

Search our weather history database for the weather conditions in past years. The results will help you decide how hot, cold, wet, or windy it might be!

Date:

Astronomy

Dec. 07, 2012 Rise Set
Actual Time 7:09 AM MST 4:34 PM MST
Civil Twilight 6:38 AM MST 5:05 PM MST
Nautical Twilight 6:04 AM MST 5:38 PM MST
Astronomical Twilight 5:32 AM MST 6:11 PM MST
Moon 12:31 AM MST (12/7) 12:33 PM MST (12/7)
Length of Visible Light 10h 26m
Length of Day
9h 25m
Last Quarter, 38% of the Moon is Illuminated
Dec 7
Last Quarter
Dec 13
New
Dec 19
First Quarter
Dec 28
Full
Jan 4
Last Quarter

Hourly Weather History & Observations

Time (MST) Temp. Windchill Dew Point Humidity Pressure Visibility Wind Dir Wind Speed Gust Speed Precip Events Conditions
12:14 AM 28.0 °F 24.2 °F 25.7 °F 91% 29.84 in 10.0 mi South 3.5 mph - N/A   Clear
12:34 AM 28.4 °F 22.2 °F 25.7 °F 90% 29.84 in 10.0 mi SW 5.8 mph - N/A   Clear
12:54 AM 30.6 °F 21.8 °F 27.3 °F 88% 29.82 in 10.0 mi WSW 10.4 mph - N/A   Clear
1:14 AM 30.0 °F - 26.1 °F 85% 29.83 in 10.0 mi Calm Calm - N/A   Clear
1:34 AM 29.3 °F 25.6 °F 25.7 °F 86% 29.83 in 10.0 mi NNE 3.5 mph - N/A   Clear
1:54 AM 27.3 °F - 25.0 °F 91% 29.83 in 10.0 mi Calm Calm - N/A   Clear
2:14 AM 27.9 °F - 23.9 °F 85% 29.82 in 10.0 mi Calm Calm - N/A   Clear
2:34 AM 26.1 °F - 23.0 °F 88% 29.82 in 10.0 mi Calm Calm - N/A   Clear
2:54 AM 25.5 °F 18.7 °F 23.4 °F 92% 29.82 in 10.0 mi North 5.8 mph - N/A   Clear
3:14 AM 24.1 °F - 22.5 °F 94% 29.82 in 10.0 mi Calm Calm - N/A   Clear
3:34 AM 23.9 °F - 22.3 °F 94% 29.81 in 10.0 mi Calm Calm - N/A   Scattered Clouds
3:54 AM 24.4 °F 20.1 °F 22.6 °F 93% 29.79 in 10.0 mi South 3.5 mph - N/A   Scattered Clouds
4:14 AM 24.8 °F 20.5 °F 22.8 °F 92% 29.80 in 10.0 mi SW 3.5 mph - N/A   Clear
4:34 AM 24.8 °F - 22.6 °F 91% 29.80 in 10.0 mi Calm Calm - N/A   Clear
4:54 AM 23.2 °F - 21.2 °F 92% 29.80 in 10.0 mi Calm Calm - N/A   Clear
5:14 AM 23.4 °F 16.2 °F 21.6 °F 93% 29.80 in 10.0 mi South 5.8 mph - N/A   Clear
5:34 AM 24.3 °F 18.4 °F 21.7 °F 90% 29.81 in 10.0 mi NNW 4.6 mph - N/A   Clear
5:54 AM 24.3 °F 19.9 °F 22.1 °F 91% 29.82 in 10.0 mi WSW 3.5 mph - N/A   Scattered Clouds
6:14 AM 25.5 °F - 23.2 °F 91% 29.80 in 10.0 mi Calm Calm - N/A   Mostly Cloudy
6:34 AM 25.3 °F 19.7 °F 22.8 °F 90% 29.82 in 10.0 mi North 4.6 mph - N/A   Mostly Cloudy
6:54 AM 25.3 °F 18.5 °F 23.0 °F 91% 29.82 in 10.0 mi SSE 5.8 mph - N/A   Scattered Clouds
7:14 AM 26.4 °F - 23.5 °F 89% 29.81 in 10.0 mi Calm Calm - N/A   Mostly Cloudy
7:34 AM 25.3 °F - 22.8 °F 90% 29.82 in 10.0 mi Calm Calm - N/A   Mostly Cloudy
7:54 AM 26.8 °F 22.8 °F 24.1 °F 90% 29.83 in 10.0 mi South 3.5 mph - N/A   Scattered Clouds
8:14 AM 28.4 °F 23.3 °F 25.0 °F 87% 29.84 in 10.0 mi SE 4.6 mph - N/A   Scattered Clouds
8:34 AM 30.6 °F 27.1 °F 26.1 °F 83% 29.84 in 10.0 mi SE 3.5 mph - N/A   Clear
8:54 AM 32.0 °F 27.5 °F 27.3 °F 83% 29.83 in 10.0 mi South 4.6 mph - N/A   Clear
9:14 AM 36.3 °F - 30.0 °F 78% 29.84 in 10.0 mi Calm Calm - N/A   Clear
9:34 AM 40.6 °F 38.6 °F 30.4 °F 67% 29.83 in 10.0 mi ESE 3.5 mph - N/A   Clear
9:54 AM 45.5 °F 43.2 °F 27.5 °F 49% 29.84 in 10.0 mi NE 4.6 mph - N/A   Clear
10:14 AM 46.8 °F - 25.5 °F 43% 29.84 in 10.0 mi East 8.1 mph - N/A   Clear
10:34 AM 49.6 °F - 26.2 °F 40% 29.83 in 10.0 mi East 3.5 mph - N/A   Clear
10:54 AM 51.3 °F - 23.4 °F 34% 29.83 in 10.0 mi ESE 8.1 mph - N/A   Clear
11:14 AM 52.9 °F - 18.9 °F 26% 29.82 in 10.0 mi NE 3.5 mph - N/A   Clear
11:34 AM 52.7 °F - 18.0 °F 25% 29.82 in 10.0 mi NNW 3.5 mph - N/A   Clear
11:54 AM 51.4 °F - 23.2 °F 33% 29.82 in 10.0 mi ENE 16.1 mph - N/A   Clear
12:14 PM 46.4 °F 40.7 °F 27.5 °F 48% 29.82 in 10.0 mi East 12.7 mph 20.7 mph N/A   Clear
12:34 PM 44.8 °F 38.0 °F 23.9 °F 44% 29.82 in 10.0 mi ENE 15.0 mph 20.7 mph N/A   Clear
12:54 PM 44.1 °F 36.5 °F 23.5 °F 44% 29.82 in 10.0 mi ENE 17.3 mph - N/A   Clear
1:14 PM 44.6 °F 38.8 °F 23.4 °F 43% 29.82 in 10.0 mi ENE 11.5 mph 17.3 mph N/A   Clear
1:34 PM 46.2 °F 40.8 °F 22.8 °F 40% 29.83 in 10.0 mi East 11.5 mph - N/A   Clear
1:54 PM 45.7 °F 42.0 °F 23.0 °F 41% 29.83 in 10.0 mi East 6.9 mph - N/A   Clear
2:14 PM 45.9 °F 42.9 °F 22.8 °F 40% 29.84 in 10.0 mi ESE 5.8 mph - N/A   Clear
2:34 PM 46.2 °F 41.7 °F 22.8 °F 40% 29.85 in 10.0 mi ESE 9.2 mph - N/A   Clear
2:52 PM 45.5 °F 42.5 °F 22.1 °F 40% 29.85 in 10.0 mi ESE 5.8 mph - N/A   Clear
3:11 PM 45.1 °F 42.0 °F 22.3 °F 40% 29.85 in 10.0 mi ESE 5.8 mph - N/A   Clear
3:32 PM 44.4 °F 40.0 °F 23.0 °F 43% 29.87 in 10.0 mi ESE 8.1 mph - N/A   Clear
3:51 PM 42.8 °F 39.3 °F 22.8 °F 45% 29.86 in 10.0 mi ESE 5.8 mph - N/A   Clear
4:11 PM 41.5 °F 37.1 °F 22.6 °F 47% 29.87 in 10.0 mi ESE 6.9 mph - N/A   Clear
4:32 PM 38.3 °F 32.5 °F 22.3 °F 53% 29.88 in 10.0 mi ESE 8.1 mph - N/A   Clear
4:51 PM 38.5 °F 31.6 °F 21.9 °F 51% 29.89 in 10.0 mi SE 10.4 mph - N/A   Clear
5:12 PM 38.7 °F 32.9 °F 21.6 °F 50% 29.89 in 10.0 mi SE 8.1 mph - N/A   Mostly Cloudy
5:32 PM 37.4 °F 32.1 °F 21.6 °F 53% 29.90 in 10.0 mi ESE 6.9 mph - N/A   Mostly Cloudy
6:12 PM 38.3 °F 32.5 °F 21.0 °F 50% 29.92 in 10.0 mi ESE 8.1 mph - N/A   Overcast
6:32 PM 38.3 °F 32.5 °F 20.7 °F 49% 29.92 in 10.0 mi SE 8.1 mph - N/A   Overcast
6:52 PM 38.3 °F 32.5 °F 20.3 °F 48% 29.93 in 10.0 mi SSE 8.1 mph - N/A   Mostly Cloudy
7:32 PM 37.9 °F 30.9 °F 20.3 °F 49% 29.93 in 10.0 mi SSE 10.4 mph - N/A   Mostly Cloudy
7:51 PM 37.8 °F 31.8 °F 20.3 °F 49% 29.93 in 10.0 mi South 8.1 mph - N/A   Scattered Clouds
8:12 PM 37.8 °F 30.2 °F 20.3 °F 49% 29.92 in 10.0 mi SSE 11.5 mph - N/A   Scattered Clouds
8:31 PM 37.2 °F 33.6 °F 20.3 °F 50% 29.93 in 10.0 mi South 4.6 mph - N/A   Mostly Cloudy
8:49 PM 36.1 °F 30.6 °F 20.1 °F 52% 29.92 in 10.0 mi SE 6.9 mph - N/A   Mostly Cloudy
9:10 PM 35.2 °F 28.8 °F 20.3 °F 55% 29.92 in 10.0 mi SE 8.1 mph - N/A   Mostly Cloudy
9:30 PM 36.5 °F 29.7 °F 20.3 °F 52% 29.92 in 10.0 mi SE 9.2 mph - N/A   Overcast
9:51 PM 36.5 °F 30.3 °F 20.3 °F 52% 29.91 in 10.0 mi SE 8.1 mph - N/A   Overcast
10:10 PM 36.1 °F 29.9 °F 20.8 °F 54% 29.91 in 10.0 mi SE 8.1 mph - N/A   Overcast
10:31 PM 36.5 °F 31.0 °F 21.0 °F 54% 29.90 in 10.0 mi SE 6.9 mph - N/A   Overcast
10:51 PM 35.6 °F - 21.2 °F 56% 29.90 in 10.0 mi Calm Calm - N/A   Overcast
11:11 PM 35.8 °F 31.9 °F 21.2 °F 55% 29.89 in 10.0 mi SSE 4.6 mph - N/A   Overcast
11:31 PM 35.1 °F 31.0 °F 21.7 °F 58% 29.88 in 10.0 mi SE 4.6 mph - N/A   Mostly Cloudy
11:51 PM 33.6 °F 30.6 °F 21.6 °F 61% 29.88 in 10.0 mi SE 3.5 mph - N/A   Mostly Cloudy